ボアッティーニ彗星

C/2010 U3 ( Boattini )

English version
Home page
Updated on August 6, 2019

---------------------------------------------------------------------

・ プロフィール

発見日 2010年10月31日
発見光度 19.4等
発見者 A. Boattini (Mt. Lemmon)

・ 写真集

・ 軌道要素

Epoch 2019 Mar. 18.0 TT = JDT 2458560.5
T 2019 Feb. 26.62367 TT                                 MPCW
q   8.4455185            (2000.0)            P               Q
z  +0.0001960      Peri.   88.08644     -0.36204877     -0.74305622
 +/-0.0000003      Node    43.06727     +0.07255767     -0.62443409
e   0.9983446      Incl.   55.51175     +0.92933098     -0.24072706
From 1813 observations 2005 Nov. 5-2019 May 12, mean residual 0".6.

・ 星図

・ 光度変化

        m1 = 7.5 + 5 logΔ + 5.0 log r

---------------------------------------------------------------------

軌道要素はM.P.E.C. 2019-J142に掲載されたものです。
星図はステラナビゲータ Ver.8 (アストロアーツ) で作成したものです。
光度グラフはComet for Windowsで作成したものです。

---------------------------------------------------------------------

Copyright(C) Seiichi Yoshida (comet@aerith.net). All rights reserved.